EW6329 Weather Reports


Display with metric or nautical units.
time (UTC)temp
F
wind
direction
speed
MPH
gust
MPH
rain 1hr
in
rain 24hr
in
rain mn
in
humidity
%
barometer
mb
20260831140043 78 310 0.0 2.0 0.00 0.00 0.00 83 1017.1
20260831134556 76 311 0.0 2.0 0.00 0.00 0.00 88 1017.0
20260831133010 74 311 0.0 2.0 0.00 0.00 0.00 90 1016.9
20260831131532 73 311 0.0 0.0 0.00 0.00 0.00 91 1016.8
20260831130034 73 311 0.0 0.0 0.00 0.00 0.00 91 1016.7
20260831124547 73 311 0.0 2.0 0.00 0.00 0.00 91 1016.7
20260831123102 72 311 0.0 0.0 0.00 0.00 0.00 90 1016.5
20260831121514 72 311 0.0 0.0 0.00 0.00 0.00 90 1016.2
20260831120019 72 311 0.0 0.0 0.00 0.00 0.00 89 1016.1
20260831114534 72 311 0.0 0.0 0.00 0.00 0.00 89 1016.0
20260831113046 72 311 0.0 0.0 0.00 0.00 0.00 89 1015.8
20260831111558 73 311 0.0 0.0 0.00 0.00 0.00 88 1015.7
20260831110005 73 311 0.0 0.0 0.00 0.00 0.00 88 1015.7
20260831104518 73 311 0.0 0.0 0.00 0.00 0.00 87 1015.5
20260831103031 73 311 0.0 0.0 0.00 0.00 0.00 87 1015.3
20260831101546 73 311 0.0 0.0 0.00 0.00 0.00 87 1015.1
20260831100058 74 311 0.0 0.0 0.00 0.00 0.00 86 1015.0
20260831094510 74 311 0.0 0.0 0.00 0.00 0.00 86 1015.0
20260831093022 74 311 0.0 0.0 0.00 0.00 0.00 85 1015.0
20260831091536 74 311 0.0 0.0 0.00 0.00 0.00 85 1015.0
20260831090049 75 311 0.0 0.0 0.00 0.00 0.00 84 1015.0
20260831084607 75 311 0.0 0.0 0.00 0.00 0.00 83 1014.8
20260831083018 75 311 0.0 0.0 0.00 0.00 0.00 83 1014.7
20260831081525 76 311 0.0 0.0 0.00 0.00 0.00 82 1014.6
20260831080038 76 311 0.0 0.0 0.00 0.00 0.00 82 1014.5
20260831074551 76 311 0.0 0.0 0.00 0.00 0.00 81 1014.6
20260831073006 77 311 0.0 0.0 0.00 0.00 0.00 80 1014.6
20260831071515 77 311 0.0 0.0 0.00 0.00 0.00 79 1014.7
20260831070029 78 311 0.0 0.0 0.00 0.00 0.00 78 1014.8
20260831064542 78 311 0.0 0.0 0.00 0.00 0.00 77 1014.9
20260831063054 78 311 0.0 0.0 0.00 0.00 0.00 77 1014.9
20260831061505 79 311 0.0 0.0 0.00 0.00 0.00 75 1014.9
20260831060019 79 311 0.0 0.0 0.00 0.00 0.00 75 1015.0
20260831054536 79 311 0.0 0.0 0.00 0.00 0.00 75 1015.0
20260831053047 79 311 0.0 0.0 0.00 0.00 0.00 74 1015.0
20260831051558 79 311 0.0 0.0 0.00 0.00 0.00 74 1014.9
20260831050007 80 311 0.0 0.0 0.00 0.00 0.00 74 1014.8
20260831044519 80 311 0.0 0.0 0.00 0.00 0.00 74 1014.9
20260831043032 80 311 0.0 0.0 0.00 0.00 0.00 74 1015.0
20260831041638 80 311 0.0 0.0 0.00 0.00 0.00 74 1015.0
20260831040059 80 311 0.0 0.0 0.00 0.00 0.00 74 1015.0
20260831034509 81 311 0.0 0.0 0.00 0.00 0.00 73 1014.9
20260831033024 81 311 0.0 0.0 0.00 0.00 0.00 72 1014.8
20260831031536 81 311 0.0 0.0 0.00 0.00 0.00 72 1014.7
20260831030054 82 311 0.0 0.0 0.00 0.00 0.00 73 1014.6
20260831024621 82 311 0.0 0.0 0.00 0.00 0.00 72 1014.5
20260831023012 83 311 0.0 0.0 0.00 0.00 0.00 71 1014.5
20260831021536 83 310 0.0 0.0 0.00 0.00 0.00 70 1014.3
20260831020039 84 311 0.0 0.0 0.00 0.00 0.00 68 1014.2
20260831014552 85 310 0.0 0.0 0.00 0.00 0.00 67 1014.1
20260831013002 85 310 0.0 0.0 0.00 0.00 0.00 65 1014.0
20260831011531 86 310 0.0 0.0 0.00 0.00 0.00 63 1013.8
20260831010027 87 310 0.0 0.0 0.00 0.00 0.00 62 1013.6
20260831004539 87 310 0.0 0.0 0.00 0.00 0.00 60 1013.5
20260831003051 88 310 0.0 0.0 0.00 0.00 0.00 59 1013.6
20260831001502 89 310 0.0 0.0 0.00 0.00 0.00 58 1013.5
20260831000015 89 310 0.0 0.0 0.00 0.00 0.00 58 1013.4
20260830234528 90 310 0.0 0.0 0.00 0.00 0.00 58 1013.4
20260830233041 90 310 0.0 0.0 0.00 0.00 0.00 58 1013.4
20260830231558 90 310 0.0 0.0 0.00 0.00 0.00 57 1013.3
20260830230004 90 310 0.0 1.0 0.00 0.00 0.00 57 1013.3
20260830224521 91 310 0.0 0.0 0.00 0.00 0.00 55 1013.4
20260830223030 91 310 0.0 2.0 0.00 0.00 0.00 55 1013.3
20260830221545 91 310 0.0 2.0 0.00 0.00 0.00 52 1013.3
20260830220053 92 310 0.0 1.0 0.00 0.00 0.00 51 1013.4
20260830214503 92 310 0.0 2.0 0.00 0.00 0.00 51 1013.4
20260830213015 92 310 0.0 2.0 0.00 0.00 0.00 52 1013.5
20260830211529 92 310 0.0 2.0 0.00 0.00 0.00 52 1013.5
20260830210040 93 310 0.0 2.0 0.00 0.00 0.00 50 1013.7
20260830204554 93 310 0.0 2.0 0.00 0.00 0.00 52 1013.9
20260830203004 93 310 0.0 3.0 0.00 0.00 0.00 49 1014.1
20260830201516 94 292 1.0 4.0 0.00 0.00 0.00 49 1014.2
20260830200028 93 267 0.0 2.0 0.00 0.00 0.00 51 1014.4
20260830194552 92 329 0.0 2.0 0.00 0.00 0.00 52 1014.6
20260830193103 92 106 0.0 2.0 0.00 0.00 0.00 51 1014.9
20260830191505 92 107 0.0 2.0 0.00 0.00 0.00 52 1015.0
20260830190021 93 155 1.0 4.0 0.00 0.00 0.00 49 1015.3
20260830184533 93 334 0.0 2.0 0.00 0.00 0.00 52 1015.5
20260830183045 93 313 0.0 3.0 0.00 0.00 0.00 53 1015.5
20260830181554 91 103 0.0 3.0 0.00 0.00 0.00 53 1015.6
20260830180003 91 336 0.0 3.0 0.00 0.00 0.00 53 1015.6
20260830174520 92 315 0.0 4.0 0.00 0.00 0.00 52 1015.6
20260830173031 92 142 0.0 2.0 0.00 0.00 0.00 52 1015.8
20260830171541 91 135 0.0 2.0 0.00 0.00 0.00 53 1016.0
20260830170051 90 111 0.0 2.0 0.00 0.00 0.00 55 1016.1
20260830164502 89 324 0.0 2.0 0.00 0.00 0.00 58 1016.3
20260830163019 88 324 0.0 2.0 0.00 0.00 0.00 60 1016.5
20260830161535 86 327 0.0 3.0 0.00 0.00 0.00 61 1016.4
20260830160035 85 304 0.0 2.0 0.00 0.00 0.00 66 1016.5
20260830154545 83 304 0.0 1.0 0.00 0.00 0.00 70 1016.5
20260830153057 82 304 0.0 2.0 0.00 0.00 0.00 73 1016.4
20260830151504 80 304 0.0 2.0 0.00 0.00 0.00 73 1016.5
20260830150017 78 304 0.0 2.0 0.00 0.00 0.00 79 1016.5
20260830144541 77 296 0.0 2.0 0.00 0.00 0.00 81 1016.5
20260830143042 75 101 0.0 2.0 0.00 0.00 0.00 86 1016.6
20260830141549 73 92 0.0 1.0 0.00 0.00 0.00 90 1016.7